Theta_e
332 332 332 332 332 333 333 335 335 335 336 338 340 342 343 344 344 345 349 351 350 349 351 351 349 349 349 350 350 350 351 350 351 351 351 350 349 348 346 343 342 343 345 345 346 348 350 354 355 355 354 354 353 352 350 352 352 354 353 356 356 355 350
330 331 332 332 331 332 333 334 335 335 336 338 340 341 342 343 344 346 350 351 350 349 350 350 350 349 349 349 350 349 349 350 351 353 353 352 353 349 348 347 340 342 344 345 345 347 351 354 355 354 354 355 353 352 352 351 351 349 350 351 353 352 353
330 331 332 332 332 332 332 334 335 336 337 338 340 340 341 343 345 348 350 351 350 350 350 350 351 349 350 350 349 348 349 350 350 351 351 351 351 351 350 349 347 341 342 345 345 346 352 352 354 354 354 353 354 352 351 351 351 350 349 351 352 352 349
329 330 331 333 334 334 334 334 335 337 339 340 340 340 341 343 345 349 351 351 350 350 349 350 350 350 350 349 349 349 349 350 351 351 352 352 351 351 349 348 348 348 344 343 346 348 351 352 353 353 359 353 353 352 351 351 352 351 351 351 351 351 350
328 329 330 331 332 333 335 335 336 338 339 340 340 341 343 345 346 350 351 351 351 349 350 351 352 351 351 350 350 351 350 351 352 353 353 352 352 351 349 348 347 347 346 344 345 349 351 351 352 352 353 352 351 351 351 350 351 353 352 352 351 352 351
328 328 330 331 332 333 335 336 338 338 339 338 339 341 344 346 347 350 352 352 350 348 349 350 351 352 350 351 351 352 353 353 353 354 353 352 351 350 349 349 347 346 346 343 345 346 348 350 351 351 351 351 350 350 350 349 350 352 352 352 351 351 351
328 330 331 332 333 333 335 338 341 341 341 340 341 343 343 344 344 347 349 352 353 349 347 349 351 352 352 352 353 354 353 353 353 353 353 352 351 350 349 349 349 347 347 347 341 342 344 345 346 347 348 348 350 349 348 348 349 350 351 350 350 350 350
329 331 333 333 334 334 336 341 341 341 341 341 340 341 342 345 347 349 349 352 350 351 349 351 352 354 355 354 354 354 354 354 353 353 352 351 350 350 349 349 348 348 348 346 345 340 340 342 343 344 343 344 346 347 348 348 348 349 350 350 349 349 351
334 335 335 336 336 337 339 340 340 341 341 340 340 341 342 344 346 347 348 352 350 349 351 351 352 354 353 354 354 354 355 354 353 352 352 351 350 350 350 349 348 349 348 347 346 345 340 339 341 342 342 343 344 345 346 346 347 348 349 349 349 348 348
336 336 336 337 338 339 339 340 341 341 340 340 340 340 341 342 344 347 349 348 348 350 350 350 351 352 352 353 354 354 353 352 352 351 351 350 350 350 350 350 349 349 347 347 347 346 344 340 338 339 341 342 343 344 345 345 345 346 347 347 348 348 348
336 336 336 336 338 339 339 339 339 340 340 339 340 341 342 342 344 346 346 347 349 348 349 351 354 352 353 354 353 353 352 351 351 350 350 350 350 350 352 352 351 351 349 346 344 344 343 343 341 338 338 341 343 344 344 345 344 344 345 346 346 347 347
336 335 335 335 336 338 337 338 339 339 339 339 340 340 342 342 343 345 346 347 349 348 348 350 351 352 350 350 351 350 350 351 350 350 350 350 350 351 352 352 350 347 348 347 345 344 344 343 342 342 339 338 341 344 345 345 345 344 344 345 345 346 347
336 335 335 335 336 337 337 337 338 339 338 339 340 340 341 343 343 345 347 347 349 349 348 347 347 347 348 348 348 348 349 350 349 349 350 350 351 351 351 351 350 349 346 347 346 346 345 345 343 345 342 340 339 341 344 344 344 344 343 344 344 345 345
341 336 336 336 335 335 336 336 337 338 337 337 339 340 341 344 345 346 345 344 346 347 348 347 346 344 343 344 347 347 347 348 348 348 349 350 350 350 350 350 349 349 348 348 346 347 348 346 345 344 345 343 343 343 342 341 342 343 343 343 342 343 344
335 335 336 335 335 335 335 336 336 336 336 337 338 339 339 342 344 345 343 343 345 345 345 346 344 343 342 345 349 348 347 347 347 348 350 351 349 349 349 348 347 348 347 348 347 347 346 347 347 345 344 344 343 343 344 343 341 343 343 342 342 342 342
334 335 335 336 336 336 335 336 336 335 336 337 337 338 339 341 343 344 344 343 347 349 350 348 344 343 345 349 350 351 351 352 351 348 348 348 348 348 348 348 348 349 347 347 346 345 346 346 347 346 345 344 343 343 344 344 345 351 353 352 346 344 343
333 334 335 336 337 338 339 339 337 336 337 339 339 338 340 341 345 347 350 352 353 354 354 351 348 350 351 350 349 350 351 350 346 345 345 345 346 348 348 347 348 348 348 348 346 345 345 346 345 345 345 344 343 342 343 344 346 353 345 344 350 350 344
333 334 335 337 337 338 340 342 340 340 340 341 341 342 342 345 348 350 352 353 353 354 354 353 352 351 349 349 349 349 350 350 346 342 342 343 344 345 346 348 348 347 347 346 348 348 347 346 345 345 344 345 343 342 343 343 350 340 340 342 341 352 349
333 335 337 337 337 338 340 342 343 344 345 345 347 348 349 350 349 350 351 351 352 354 353 352 351 350 349 349 351 350 350 350 349 345 342 342 343 343 344 345 347 345 344 344 345 348 348 347 346 345 345 344 343 343 343 343 347 336 336 336 336 338 351
333 335 337 339 339 339 340 342 343 345 346 347 348 348 347 349 349 349 349 348 349 351 351 351 348 348 348 347 348 348 350 351 350 350 347 344 345 345 344 342 344 344 343 344 345 345 347 350 350 351 352 352 350 347 345 344 350 339 334 332 332 334 340
330 333 335 335 336 339 340 341 342 343 343 344 344 344 345 345 348 348 348 349 350 351 351 349 347 345 345 345 344 344 344 346 348 347 343 341 344 344 343 344 345 345 345 344 344 343 343 344 345 347 350 350 350 349 351 354 348 338 335 331 329 330 337
329 332 333 334 335 340 340 341 341 342 342 343 342 342 343 345 346 348 347 349 350 349 350 349 346 345 344 345 344 344 344 345 344 345 341 340 339 340 341 341 342 342 343 343 342 342 342 342 343 345 347 348 349 349 349 351 342 337 335 332 330 334 342
330 333 334 335 338 342 343 343 342 342 343 340 340 340 340 342 343 344 345 346 349 349 350 348 346 344 344 346 345 344 344 344 345 344 344 342 339 339 339 337 337 338 341 340 340 340 340 341 342 344 346 346 346 346 347 348 343 334 331 331 330 337 340
332 334 335 338 343 344 344 343 342 343 341 339 338 339 338 339 341 341 342 344 346 349 348 348 347 347 346 347 347 346 345 345 344 343 343 341 339 338 337 337 338 339 343 340 339 339 340 341 342 342 345 345 345 346 346 346 347 337 331 328 328 339 343
335 337 339 342 344 343 343 342 342 342 340 339 338 339 338 338 340 340 341 344 345 347 347 347 347 347 348 348 349 348 346 345 343 341 340 338 337 336 336 336 337 338 340 342 340 341 340 343 343 341 340 342 344 351 350 348 347 335 329 327 325 333 342
335 339 341 343 345 344 343 344 343 340 339 339 340 342 339 339 340 342 340 343 345 345 345 346 347 348 348 346 346 346 346 344 345 342 340 337 336 336 336 337 338 337 340 341 342 342 341 341 341 339 341 342 343 345 346 345 346 345 331 325 322 325 342
337 341 341 342 343 347 343 343 342 340 340 342 344 343 340 340 339 342 345 343 343 344 345 345 345 345 344 343 342 342 341 341 341 341 339 339 338 339 340 339 338 338 341 341 341 340 340 340 340 341 341 342 342 343 343 345 345 345 331 324 321 321 332
336 340 342 344 346 345 343 343 342 341 342 341 345 345 342 341 342 343 344 340 340 344 344 345 344 343 342 341 340 339 339 339 340 342 342 340 340 337 334 336 336 335 335 334 334 334 334 334 337 339 338 339 341 342 342 347 349 345 336 327 321 318 319
335 337 338 341 343 344 344 342 341 342 342 344 346 344 343 343 344 345 345 339 342 344 345 344 342 341 340 339 338 340 339 340 343 342 341 339 338 333 332 333 334 333 333 332 331 331 330 330 331 331 332 333 335 338 341 341 341 341 340 323 315 318 315
335 337 339 342 343 343 343 341 342 342 341 342 342 341 342 344 345 344 340 339 343 344 344 341 340 340 342 344 340 340 339 339 342 338 338 341 338 335 332 331 331 332 332 330 331 329 329 328 331 331 332 333 334 335 338 338 335 335 335 327 316 312 315
334 336 338 338 338 340 341 341 341 341 340 339 340 339 339 341 345 344 339 338 342 343 341 340 340 340 340 338 339 339 339 339 337 337 337 338 339 336 334 332 332 331 328 332 329 327 326 327 329 328 330 331 333 334 336 336 331 329 332 330 324 316 315
334 336 337 335 335 340 341 342 341 340 340 338 339 339 343 339 343 343 338 340 341 339 340 341 340 339 337 338 338 337 340 338 338 337 336 337 338 337 334 333 334 331 327 325 325 323 325 326 326 324 324 323 324 328 333 335 333 329 328 331 328 323 315
334 335 334 333 335 342 342 342 340 339 339 337 339 339 340 340 341 342 342 341 341 341 340 339 339 342 338 336 336 336 335 335 333 333 334 332 331 329 330 330 332 330 326 324 322 322 324 323 324 322 320 321 322 321 325 329 330 332 331 326 324 323 323
333 333 333 335 339 343 342 341 339 338 337 336 336 338 338 340 342 342 341 341 342 341 340 341 339 337 336 336 336 337 335 334 345 339 328 325 322 323 324 326 325 322 321 319 319 318 319 319 322 319 319 317 319 319 320 324 323 323 322 326 327 325 323
331 333 337 339 340 341 339 339 339 337 338 337 337 338 337 337 341 342 340 340 341 340 340 339 344 338 336 336 336 334 341 337 335 333 326 320 316 312 312 315 320 319 316 315 314 316 318 318 319 319 316 316 318 317 318 321 322 324 313 316 311 319 323
337 337 336 335 335 334 333 334 333 333 335 337 336 336 336 334 337 342 342 340 340 340 339 339 339 337 335 336 336 336 334 334 331 328 325 321 318 317 314 311 303 307 318 316 313 307 303 306 317 315 313 315 318 317 317 319 321 308 300 298 300 306 307
333 332 332 333 332 332 332 333 335 334 334 335 336 336 338 338 338 339 340 341 340 338 335 334 334 333 331 331 333 337 337 334 330 327 324 323 320 319 317 314 311 299 304 311 310 303 295 295 297 300 307 314 316 313 307 308 304 299 298 298 298 297 298
332 332 332 333 332 332 332 333 334 335 334 335 337 337 334 333 333 335 336 336 336 336 336 336 335 332 332 331 333 336 338 333 333 330 327 325 323 322 321 319 315 311 300 301 304 300 296 294 294 294 297 301 305 315 313 304 299 298 298 298 298 297 297
Wind_Speed
12 12 11 12 12 12 12 13 13 13 11 12 13 14 13 13 13 13 12 13 14 12 11 11 12 10 11 10 9 8 8 8 6 7 6 6 5 5 5 5 7 7 7 8 8 8 7 7 7 7 6 6 5 5 5 4 4 4 3 3 3 3 3
11 12 12 11 11 12 12 13 12 11 10 11 12 14 13 14 13 13 13 14 15 15 14 13 11 11 11 10 8 7 8 8 7 6 5 5 4 4 4 5 6 7 7 7 7 7 7 8 7 7 7 7 7 6 6 6 5 5 4 4 3 3 3
11 12 12 10 9 8 10 10 10 11 11 10 11 12 13 14 15 15 13 13 13 13 12 12 12 12 10 9 8 8 8 7 7 8 7 7 6 5 4 4 3 5 6 7 6 7 7 8 7 6 7 7 8 7 6 6 6 6 5 5 5 5 4
10 11 12 12 13 11 11 11 11 9 11 13 13 13 14 15 14 13 14 14 13 13 14 12 11 11 10 9 9 8 8 8 8 8 8 7 7 5 4 4 3 3 3 6 6 8 8 8 8 7 7 7 7 7 6 7 6 6 6 5 6 5 5
6 7 7 6 6 6 6 8 9 10 11 11 11 12 11 11 11 10 11 14 15 16 15 14 11 10 8 9 8 7 9 9 8 7 7 6 6 5 5 5 5 4 4 3 5 6 7 8 8 8 8 7 7 6 7 7 7 6 6 6 6 6 6
5 7 8 7 5 4 3 4 7 9 9 5 5 8 11 14 15 7 4 2 4 6 9 10 10 10 9 9 8 7 7 7 7 6 6 6 6 6 7 6 5 5 4 4 3 6 6 8 8 8 8 7 8 8 7 7 8 7 7 6 6 6 6
6 6 6 5 5 6 5 4 5 6 9 11 12 12 11 9 8 3 6 4 3 4 5 10 11 11 9 8 8 7 8 8 7 7 6 6 7 7 7 6 6 6 5 3 4 4 6 7 7 8 8 9 8 9 8 8 8 7 7 6 7 6 6
5 4 3 4 6 6 6 5 7 10 10 10 10 10 11 9 9 7 8 9 8 3 6 8 9 8 9 8 8 8 9 9 7 7 6 7 7 8 8 7 6 6 5 5 4 4 5 6 7 7 8 8 8 8 9 9 9 9 8 8 7 7 6
4 5 5 5 7 7 6 5 7 9 11 10 10 9 10 8 7 5 5 5 9 6 3 5 6 2 6 7 8 9 9 9 8 8 8 9 8 9 8 7 6 5 6 6 5 4 5 6 8 8 9 9 9 9 9 9 9 9 8 9 9 9 8
7 5 5 7 6 6 6 7 7 9 11 10 8 8 9 8 7 7 7 8 10 12 13 13 10 8 11 10 10 10 9 9 9 9 9 9 8 9 9 8 7 6 6 6 6 6 5 6 7 7 8 10 10 10 10 9 9 9 9 9 9 9 9
7 7 7 8 8 8 8 7 8 8 8 9 8 7 6 8 9 10 7 7 11 11 9 8 9 10 10 11 11 10 9 10 10 10 10 10 8 9 9 8 7 6 6 5 4 3 4 5 6 6 7 9 11 11 11 11 10 10 10 9 9 10 10
8 8 8 9 9 9 10 8 6 7 7 7 8 8 8 7 9 9 8 9 8 6 6 8 4 6 6 8 10 10 10 9 9 10 11 10 9 9 8 8 7 6 5 5 6 5 5 6 6 6 7 8 10 10 11 12 11 11 11 11 10 10 10
8 9 10 11 10 7 6 6 8 8 7 7 6 7 7 8 7 4 4 5 5 6 8 8 7 5 6 5 10 9 10 10 10 9 9 9 8 6 6 7 7 7 7 6 6 6 6 7 8 7 5 6 8 9 10 11 11 11 11 11 10 10 11
7 7 6 7 7 9 9 7 6 7 7 5 6 5 5 6 7 7 7 7 5 5 7 7 5 4 6 8 8 10 10 10 9 8 8 8 7 6 6 6 7 7 7 5 6 6 6 7 7 6 4 4 4 4 6 7 9 10 11 10 10 9 9
8 8 6 8 10 9 8 7 6 5 5 6 5 5 5 5 5 4 4 5 7 8 9 7 7 8 11 13 10 8 8 8 7 7 7 7 7 7 7 7 7 7 7 7 7 7 8 7 7 6 6 5 5 4 4 6 8 8 9 10 10 9 10
10 9 9 9 8 9 9 9 7 7 7 6 7 6 6 5 6 7 7 7 8 7 7 8 10 14 14 10 7 6 6 6 6 7 7 7 8 8 7 6 6 5 4 5 6 7 6 6 6 6 7 6 6 6 5 6 5 8 14 12 9 9 9
10 10 9 8 7 7 8 9 8 7 8 9 9 9 8 8 7 7 8 8 7 8 9 11 13 10 8 7 5 5 5 6 6 6 7 6 4 4 6 6 6 6 5 5 5 6 5 5 6 6 6 6 6 6 6 6 5 9 12 13 13 8 7
10 10 9 9 8 8 8 9 9 9 9 9 9 8 7 7 6 6 7 5 6 6 6 5 5 5 4 3 3 4 5 6 6 5 5 4 5 6 5 6 6 5 4 4 5 5 5 6 7 7 6 5 5 6 7 6 8 12 13 14 14 12 8
10 9 9 9 9 9 10 10 11 11 9 8 7 7 7 8 7 7 6 6 3 3 5 5 5 4 4 3 4 4 5 5 7 7 6 6 6 5 6 5 5 5 4 6 6 3 4 6 6 7 6 6 7 8 7 7 9 11 13 13 12 12 9
9 9 8 9 9 10 9 8 7 9 9 8 6 5 5 5 7 5 4 5 1 3 3 4 3 3 3 3 3 3 3 4 5 7 6 4 3 4 3 2 5 6 4 4 3 2 2 3 4 4 4 5 5 6 6 7 9 12 13 13 13 13 9
8 8 10 9 8 8 8 8 7 6 6 6 7 6 5 3 3 4 4 5 5 5 5 4 4 4 3 3 3 3 3 3 3 4 5 3 1 4 5 5 7 7 6 5 4 2 3 4 4 4 4 4 3 2 3 3 3 5 8 10 10 8 5
9 10 10 10 11 9 9 9 10 10 8 5 7 6 6 6 5 6 6 5 6 5 5 5 5 5 4 4 4 4 4 4 4 4 7 7 6 6 6 5 6 6 6 6 6 6 5 6 6 8 6 4 3 3 5 5 6 6 4 1 2 5 3
12 12 10 9 9 10 9 9 8 7 7 6 7 7 7 6 6 6 5 5 5 5 5 5 6 6 6 5 5 5 5 5 5 4 6 9 11 11 10 8 8 8 6 6 6 6 6 7 7 7 5 3 3 3 4 5 6 7 6 4 4 3 2
6 6 7 7 5 6 6 5 6 7 9 9 8 8 6 7 6 7 6 6 5 5 5 5 6 6 6 6 6 6 6 6 6 5 4 4 3 3 3 4 5 7 9 9 9 9 9 8 6 3 2 3 3 3 4 5 6 8 9 9 8 5 3
7 8 9 11 11 10 8 8 9 9 7 8 8 7 7 7 7 7 6 5 4 5 5 6 6 5 6 6 6 6 6 5 5 4 4 3 3 2 2 3 3 2 2 3 3 3 2 1 2 2 2 3 3 7 6 5 6 6 7 8 8 6 2
9 8 8 8 8 10 9 8 8 7 7 7 7 7 6 5 5 5 5 5 4 5 5 5 6 5 4 3 3 3 3 3 3 3 3 3 2 2 3 2 1 2 2 2 2 2 2 2 1 3 3 3 4 5 5 6 6 7 9 9 10 10 6
11 12 11 10 9 8 8 8 9 10 9 7 5 6 5 5 4 4 3 3 4 5 5 4 3 4 4 4 4 3 3 3 3 3 3 3 3 3 2 3 3 3 3 3 3 3 2 2 2 3 4 4 5 5 6 6 6 7 9 10 9 8 7
9 6 6 7 10 9 8 7 6 7 5 4 5 5 4 4 4 3 4 4 4 4 4 5 5 6 6 6 5 4 3 3 3 3 4 3 4 4 3 2 2 3 3 2 2 1 1 1 2 3 4 4 5 5 6 7 8 4 6 8 9 7 7
11 11 10 8 7 7 9 7 7 7 6 5 5 5 4 5 5 4 4 5 4 5 6 6 6 6 6 5 4 4 4 3 3 3 3 2 2 2 1 0 1 2 2 2 1 1 1 3 3 3 3 4 4 4 5 5 2 2 2 7 6 3 4
9 8 8 9 11 9 8 7 6 6 5 5 5 6 5 6 5 4 5 5 5 5 5 5 5 5 5 4 4 4 3 3 3 3 3 3 3 2 1 0 0 0 1 3 3 2 1 2 2 3 3 4 5 4 3 0 3 4 4 3 5 6 4
13 13 12 11 10 8 7 8 8 7 5 4 4 4 4 5 5 4 4 4 4 5 5 4 4 4 3 3 2 2 2 2 1 1 2 2 2 2 1 0 0 0 1 3 4 3 3 1 1 2 2 2 3 4 2 1 2 2 4 5 5 5 5
8 9 9 8 7 7 7 7 7 7 6 3 3 3 3 3 4 4 3 3 3 4 4 4 4 3 3 1 0 1 2 2 2 2 1 3 1 1 1 1 2 3 2 4 4 3 2 1 2 2 2 2 2 4 3 0 1 1 2 3 3 3 4
11 12 11 10 9 9 8 7 6 5 4 4 0 1 2 3 3 4 5 4 4 4 4 3 3 1 1 1 1 1 1 2 2 2 4 3 5 5 5 4 5 4 3 4 4 2 2 1 1 2 2 2 3 3 4 2 2 1 1 1 1 1 1
11 8 6 7 8 9 7 6 4 4 3 3 2 3 4 5 4 4 4 4 4 4 3 3 1 1 0 1 1 3 3 0 2 2 5 5 5 5 5 5 4 5 4 3 2 2 1 0 1 2 1 0 1 2 2 2 1 1 2 2 1 2 2
6 6 8 9 9 10 10 8 7 6 6 5 4 3 3 4 3 3 4 4 4 5 4 2 1 2 2 3 4 4 3 5 5 3 4 5 5 5 4 3 3 4 3 1 1 2 3 4 3 3 2 1 1 1 1 0 2 1 2 4 6 4 3
14 16 16 15 15 16 15 12 11 10 9 6 3 3 2 3 0 2 2 3 4 5 5 3 4 4 6 9 9 6 4 4 4 4 4 4 5 4 4 7 5 4 2 2 2 1 2 3 3 4 4 3 3 3 3 3 2 4 5 5 4 1 4
15 13 12 13 14 12 11 9 9 10 6 2 1 3 6 9 10 9 10 9 9 10 11 10 6 7 7 7 7 8 3 2 2 2 4 5 5 5 5 4 4 8 6 4 5 3 2 1 2 4 7 5 3 3 4 5 5 3 4 3 1 4 7
14 13 12 12 12 11 9 7 8 9 7 3 5 7 7 7 6 6 6 6 6 8 9 9 8 7 7 6 6 2 4 3 4 6 6 6 6 6 6 5 4 2 2 1 6 3 3 3 2 1 2 4 5 3 2 3 3 2 0 1 3 5 7
Wind_Direction
187 188 189 190 190 189 186 186 184 184 174 177 177 175 175 173 176 178 175 173 181 179 180 179 183 184 188 193 196 194 196 195 197 197 195 199 192 176 170 177 184 192 194 192 197 192 194 189 190 187 183 188 188 197 205 208 210 220 220 206 200 208 218
186 192 194 190 190 191 189 187 184 183 178 177 178 176 175 173 175 181 179 175 179 179 180 182 182 187 189 194 194 197 197 203 201 204 199 202 198 185 185 172 178 190 196 200 193 194 186 195 189 185 188 192 199 199 204 209 210 213 215 220 216 238 236
187 193 194 191 188 186 191 192 185 182 181 176 176 177 178 177 177 179 174 176 177 180 179 182 185 186 189 189 193 201 203 199 204 205 205 207 206 198 193 187 178 180 196 201 195 190 190 191 194 190 187 193 202 201 203 206 211 212 215 214 223 227 233
187 193 194 191 194 190 185 184 181 179 181 179 178 178 181 181 178 174 173 175 177 175 180 186 183 186 184 185 195 200 204 206 203 203 208 207 214 205 190 207 198 195 185 199 198 196 191 188 191 193 193 196 203 205 203 208 208 209 212 209 220 225 228
189 203 199 191 182 171 171 174 174 174 181 181 179 173 175 175 172 163 174 179 179 180 183 180 181 183 181 184 192 197 202 204 205 206 203 204 206 203 201 211 214 208 214 206 195 195 190 189 192 191 198 196 207 208 210 210 212 207 209 202 211 220 228
175 188 192 180 166 145 138 161 166 167 162 131 88 58 38 29 15 19 58 144 200 200 175 171 178 176 182 188 191 194 196 203 205 203 202 199 202 208 211 208 209 218 205 216 203 193 184 187 189 192 196 202 208 212 214 212 216 210 210 202 207 213 220
166 174 179 163 143 137 142 133 123 112 95 93 93 93 93 97 93 75 110 177 195 242 217 190 182 180 179 180 193 190 194 200 199 206 204 206 203 210 213 208 203 208 214 194 212 198 188 188 192 193 201 205 208 213 212 214 216 214 211 206 213 216 217
132 132 138 143 132 133 134 116 111 104 102 101 109 119 128 136 140 167 173 169 137 138 245 238 194 172 171 181 187 187 191 199 199 201 204 209 210 212 212 209 202 201 204 213 215 199 202 202 202 203 206 210 212 212 213 212 214 212 206 208 213 221 217
114 137 149 133 123 129 133 124 113 117 117 122 129 138 144 149 146 163 187 123 100 102 243 287 296 177 194 186 186 189 189 193 195 196 200 207 209 212 214 213 208 197 205 214 222 215 212 209 212 212 210 215 215 213 213 210 213 212 208 210 210 214 219
122 119 96 90 90 99 108 112 120 123 123 125 139 151 156 152 136 160 171 135 138 160 187 189 177 192 205 202 197 196 189 192 193 194 199 204 208 210 210 210 210 206 210 215 222 229 221 222 221 216 214 215 216 216 218 213 210 212 212 213 212 214 218
122 119 111 108 114 125 127 131 137 141 137 141 151 148 142 143 155 173 168 156 174 184 183 180 186 201 198 190 197 200 194 192 188 191 198 204 207 209 206 207 205 199 197 185 207 240 250 230 220 221 209 214 215 215 216 216 212 214 218 218 217 216 218
133 134 135 127 129 136 149 154 146 144 154 160 158 158 154 158 167 173 170 191 188 148 165 199 205 230 218 198 196 201 196 191 188 192 196 200 206 209 203 200 195 190 194 197 206 225 240 255 243 226 221 216 216 215 213 211 211 211 215 218 218 217 219
147 150 148 145 144 143 135 146 159 166 171 168 167 166 162 159 170 174 179 195 194 167 184 197 190 219 241 221 200 195 196 193 193 191 193 198 201 197 197 201 201 201 208 202 204 211 234 245 246 230 212 227 227 214 208 209 210 211 213 214 213 214 216
146 148 149 134 135 147 158 164 161 169 168 162 179 178 162 165 170 182 183 190 188 167 189 191 175 225 246 240 212 190 190 193 192 190 191 197 197 189 185 191 198 203 202 198 205 217 226 234 234 225 206 197 209 227 222 213 213 213 215 214 213 209 212
155 161 158 155 156 159 158 169 174 173 165 180 180 184 180 169 173 193 189 185 185 183 184 172 175 202 223 219 195 187 182 182 186 183 182 182 186 192 191 192 198 198 201 203 209 218 221 221 225 237 238 231 220 230 234 226 224 221 218 219 221 218 218
162 167 169 174 171 161 168 174 176 174 169 185 192 193 191 188 189 193 200 202 202 191 182 162 192 204 209 198 174 163 164 155 148 154 154 164 178 182 186 197 203 211 223 224 220 222 224 232 236 236 233 230 232 231 232 231 225 223 223 218 216 220 223
165 168 174 174 167 164 162 174 180 178 175 185 194 196 195 197 196 198 202 203 194 181 179 172 191 194 186 184 166 150 144 133 144 154 167 171 159 163 184 205 205 208 215 230 239 243 247 245 243 241 239 236 234 235 234 235 225 223 217 212 212 210 218
167 171 171 168 169 164 164 165 172 180 186 190 193 192 193 193 196 189 196 187 186 178 162 168 174 177 183 163 142 153 155 146 152 168 199 196 175 185 202 197 202 208 212 232 245 249 247 250 246 243 243 244 247 246 246 241 237 229 224 218 215 212 210
175 177 172 167 168 174 173 172 175 177 182 188 187 183 183 176 172 183 182 180 187 147 162 174 171 166 174 176 176 174 169 165 164 175 187 210 230 203 179 206 222 212 198 219 231 234 231 233 240 245 244 243 247 249 247 251 248 244 243 239 230 223 218
174 173 175 170 173 177 180 177 174 176 175 172 170 159 154 167 167 168 143 135 187 206 187 174 162 164 175 168 171 168 175 184 183 175 177 186 234 272 272 220 226 230 214 201 208 230 259 258 236 238 239 236 238 247 253 251 248 240 238 240 239 233 223
162 172 176 173 174 176 180 178 170 157 146 145 144 142 138 149 155 145 148 163 180 202 189 174 157 166 166 168 148 135 143 159 179 134 91 72 320 305 280 288 295 291 291 295 290 291 280 284 296 279 259 261 258 270 273 261 291 292 261 253 256 264 245
179 175 177 184 174 177 174 174 170 167 161 148 137 148 154 160 163 156 174 178 180 182 178 172 170 183 181 174 168 170 180 189 198 155 138 158 168 189 215 235 258 277 293 305 309 313 314 302 277 267 265 267 281 289 285 284 302 300 318 320 178 193 185
180 182 183 177 171 176 178 172 164 154 145 149 155 155 165 165 160 159 164 178 189 177 177 171 175 184 193 195 185 189 192 196 206 207 170 165 174 185 179 163 178 192 204 210 227 231 223 228 231 236 248 276 273 275 278 284 290 282 263 240 218 201 198
162 162 156 145 145 154 161 159 130 146 152 157 169 175 169 169 164 161 168 181 181 175 179 181 196 192 191 198 193 192 192 195 192 190 183 174 181 178 173 162 172 176 184 188 197 201 202 208 220 230 224 230 247 232 257 270 272 266 266 265 254 246 236
157 159 155 156 159 162 166 162 153 150 153 159 169 184 174 168 161 157 169 177 180 175 178 192 198 192 191 195 188 182 182 179 174 173 167 171 175 163 172 192 204 208 195 211 202 222 222 214 238 263 264 252 249 276 274 268 266 253 248 252 250 243 228
151 153 158 158 159 163 160 141 126 133 155 174 184 173 172 164 158 163 160 181 169 172 188 195 196 195 185 165 160 160 160 155 155 150 153 162 159 164 194 199 203 223 207 215 199 225 249 259 238 239 257 259 261 261 258 259 263 260 251 245 242 236 237
160 162 161 158 157 147 143 150 150 157 169 185 171 164 167 159 146 163 166 162 159 184 189 175 146 134 126 115 110 107 109 112 125 130 141 151 162 176 176 179 192 184 174 186 192 196 211 219 225 230 246 251 247 246 255 247 258 268 261 260 254 239 218
155 158 146 146 145 148 149 149 141 139 150 172 156 158 160 151 151 160 158 144 155 175 151 136 128 121 120 120 122 123 120 116 101 117 144 150 138 150 159 167 148 133 132 118 120 144 206 231 233 225 247 255 257 253 256 257 253 268 272 277 281 277 233
160 157 153 145 151 160 149 148 148 151 155 157 157 151 154 150 155 163 158 142 167 153 144 135 132 129 129 131 131 137 145 158 163 150 134 150 154 133 157 284 116 106 103 102 85 54 356 329 318 299 279 268 259 257 257 263 294 7 25 40 25 358 256
153 152 153 159 160 161 150 141 138 140 148 147 141 139 144 143 154 162 144 161 166 140 132 128 130 132 133 137 144 144 161 181 187 166 179 168 167 161 175 161 92 92 126 113 104 89 24 330 308 300 297 297 297 287 273 24 84 54 70 63 41 20 352
163 163 162 161 164 155 144 141 142 139 142 145 142 131 136 142 149 147 145 174 143 134 129 126 120 119 123 136 154 144 200 234 219 194 194 220 194 215 206 130 71 250 11 87 75 79 75 36 31 25 335 338 327 316 304 72 75 72 79 88 71 49 31
156 156 154 146 137 140 132 129 135 139 143 157 167 146 132 143 132 128 152 131 111 112 117 112 111 112 127 113 147 187 227 264 310 338 275 255 247 77 90 187 187 143 78 77 85 79 79 38 69 63 54 37 9 8 347 30 142 124 98 85 76 53 45
160 161 160 154 147 135 133 137 137 139 135 143 247 100 89 81 74 110 121 120 113 103 102 103 107 94 62 63 44 41 142 198 260 301 25 29 66 64 49 46 80 87 73 72 72 58 47 35 78 78 50 29 10 354 340 38 56 69 101 111 34 15 41
154 155 147 135 127 126 119 104 89 75 76 70 31 39 54 55 72 104 110 109 109 100 89 88 75 78 18 350 345 344 337 350 285 49 81 48 34 45 44 46 73 85 77 76 86 97 121 203 140 116 123 8 331 333 326 2 9 5 336 315 240 212 218
107 85 69 60 48 49 49 50 50 46 44 28 12 36 34 52 80 106 126 113 115 113 100 86 55 38 3 344 347 319 348 26 23 59 96 93 65 53 36 3 16 103 109 67 249 224 200 186 170 146 168 188 206 232 274 269 281 290 347 291 290 267 208
67 72 76 79 81 81 76 71 68 50 24 350 350 19 29 42 48 122 84 101 112 107 99 71 34 23 8 5 352 354 29 33 56 75 105 119 128 116 72 46 31 357 156 160 166 360 329 266 192 172 166 181 200 195 212 233 266 317 322 313 303 110 94
87 89 86 87 86 86 97 113 125 131 143 195 278 59 59 52 41 44 40 45 47 54 52 49 33 15 3 10 342 329 343 83 98 113 136 145 148 151 142 142 48 19 34 124 166 182 206 218 164 175 189 194 189 195 234 258 285 289 304 312 105 105 118
90 94 99 100 112 123 134 151 167 150 135 122 86 85 85 75 69 79 89 102 120 128 132 137 147 163 176 167 186 206 270 266 184 172 165 174 173 168 171 167 149 107 351 165 152 178 223 220 203 196 230 248 261 243 189 234 240 237 282 252 93 121 130